Location: Puketoi
(40.5833°S, 176.0167°E)
Time: 15:35:52
(UTC+00:00)

Cosmos 407 Rocket - Pass Details

Date: 08 February 2023
Orbit: 742 x 785 km, 74.0° (Epoch: 22 March)

Event Time Altitude Azimuth Distance (km) Brightness Sun altitude
Exits shadow 16:32:57 - 349° (N) 3,065 6.2 -11.0°
Reaches altitude 10° 16:34:50 10° 351° (N) 2,334 5.6 -10.7°
Maximum altitude 16:40:08 72° 74° (ENE) 835 3.8 -9.9°
Drops below altitude 10° 16:45:32 10° 157° (SSE) 2,378 6.9 -9.0°
Sets 16:47:57 0° 158° (SSE) 3,314 7.7 -8.6°
